Voltar ao catálogo

STARLINK-4726

AtivoComunicaçõesVLEO
NORAD 53802·PAYLOAD·🇺🇸 United States

Lançado Sep 11, 2022 de Cape Canaveral Space Force Station

Loading…

Próximas Passagens (próximas 24 horas)

TLE

AtualizadoSource: CelesTrak SupGP

Época: Sep 15, 2026, 01:22 UTC

1 53802C 22111AF  26258.05743056  .00049147  00000+0  14521-2 0  2585
2 53802  53.1577 118.8769 0001362  79.2808 196.5732 15.34364421    11

Acompanhe STARLINK-4726 em tempo real com AllMySat

Download on the App Store